STARLINK-2466, 48125

Orbit data source: Space-Track

STARLINK-2466, 48125 is a payload satellite owned by SpaceX/Seattle (US) in LEO that was launched on Wed, 07 Apr 2021 UTC via an FALCON 9 launch vehicle from the Air Force Eastern Test Range (AFETR). Payload-class satellites include a variety of spacecraft equipped with specific instruments for various scientific and technological missions. These include communications satellites like Starlink; space stations such as the ISS; scientific satellites like the Hubble; Earth observation satellites from companies like Planet Labs, Umbra, and HawkEye 360; GPS; miniature CubeSats for education and research; and military/defense satellites.

Loading next visibility...
Identifier
48125, 2021-027AK
Orbit
LEO
Country
Flag of USUS
Related business
Manufacturer
SpaceX/Seattle
Mission
Operational Commercial Communications
Bus & Motor
STARLINK, Unknown motor
Mass
260 kg wet, ~248 kg dry
Launch date (UTC)
2021-04-07 (5 years ago)
Launch vehicle
FALCON 9
Launch site
Air Force Eastern Test Range (AFETR)
Object type
Payload
Rocket body
Debris
Shape & HBR
Box + 1 Pan, 10.1 m
Radar Cross Section
13.562 m², Large (>1 m²)

Expand to show TLE details & history
Last TLE update: 2 days ago

TLE from 2 days ago
0 STARLINK-2466
1 48125U 21027AK  26171.35924814  .00000963  00000-0  42798-4 0  9997
2 48125  53.1594  47.9517 0001385  88.8214 271.2946 15.31708462288231
Epoch: 2026-06-20T08:37Z
TLE epoch observation values (Epoch: 2026-06-20T08:37:19.039Z)
Latitude
-0.00002°
Longitude
10.04735°
Altitude
471.594 km
Speed
7.631 km/s
True Right ascension
03h 11m 48s
True Declination
0° 00' 00"
Sunlit
Object was in daylight at epoch
Visualization orbit readout
Latitude
Unknown
Longitude
Unknown
Altitude
Unknown
Speed
Unknown
Apparent Right ascension
Unknown
Apparent Declination
Unknown
Sunlit
N/A
Visualization observer readout
Local Sidereal Time
21:31:18
Azimuth
Unknown
Elevation
Unknown
Doppler factor
Unknown
Orbital elements
Apogee altitude
471.92 km
Perigee altitude
470.023 km
Semi-major axis
6,849.108 km
Eccentricity
0.00014
Inclination
53.1594°
RAAN
47.9517°
Arg. of periapsis
88.8214°
True anomaly
271.27873°
Mean anomaly
271.2946°
Eccentric anomaly
271.28667°
Mean motion
3.82906 °/min
Orbital period
94.02 mins
BSTAR
0.000042798
Loading maneuver chart data...
Computing Atmospheric mass density...
Loading historical data...
Loading historical data...
Loading historical data...
Loading historical data...
Loading historical data...
Loading historical data...
Loading historical data...

Documentation

Showing up to 5 results
|